Home > Time Zones > World Clock > Weather > Iran > Rasht > Past weeks

Flag for Iran Weather past 2 weeks in Rasht, Iran

Now
70 °F

More clouds than sun.


Feels Like: 70 °F
Forecast: 67 / 81 °F
Wind: No wind

Location: Rasht Airport

Current Time: Sep 1, 2015 at 8:41:09 PM

Latest Report: Sep 1, 2015 at 8:00 PM


Visibility: 5 mi

Pressure: 30.04 "Hg

Humidity: 94%

Dew point: 68 °F

Location of RashtLocation

Historic Weather in Rasht — Graph

°F

Rasht temperature yesterday

Maximum temperature yesterday: 88 °F (at 2:30 PM)
Minimum temperature yesterday: 70 °F (at 6:30 AM)
Average temperature yesterday: 79 °F

Past Weeks' High & Low Weather Summary

 TemperatureHumidityPressure
High93 °F (Aug 19, 1:30 PM)100% (Aug 19, 6:30 AM)30.12 "Hg (Aug 19, 6:30 AM)
Low66 °F (Aug 27, 1:30 AM)41% (Aug 19, 1:30 PM)29.68 "Hg (Aug 24, 2:30 PM)
Average77 °F82%29.93 "Hg
* Reported Aug 17 7:30 PM — Sep 1 7:30 PM, Rasht, Weather by CustomWeather, © 2015

Note: Actual official high and low records may vary slightly from our data, if they occured in-between our weather recording intervals... More about our weather records

Advertising

Rasht weather history for previous 24 hours

 ConditionsComfort  
Time TempWeatherWind HumidityBarometerVisibility
7:30 PM
Tue, Sep 1
70 °FMore clouds than sun.5 mph94%30.04 "Hg5 mi
7:00 PM72 °FMore clouds than sun.No wind88%30.04 "Hg5 mi
6:30 PM72 °FMore clouds than sun.5 mph88%30.04 "Hg4 mi
6:00 PM70 °FFog.5 mph94%30.01 "Hg4 mi
5:30 PM70 °FFog.5 mph94%30.01 "Hg4 mi
5:00 PM70 °FLight rain. More clouds than sun.7 mph94%30.01 "Hg2 mi
4:30 PM70 °FLight rain. More clouds than sun.7 mph94%30.01 "Hg2 mi
4:00 PM70 °FLight rain. More clouds than sun.5 mph94%30.01 "Hg2 mi
3:30 PM70 °FLight rain. More clouds than sun.7 mph94%30.01 "Hg2 mi
3:00 PM72 °FFog.5 mph88%30.01 "Hg3 mi
2:30 PM72 °FFog.No wind88%30.01 "Hg3 mi
2:00 PM72 °FMore clouds than sun.No wind83%30.01 "Hg4 mi
1:30 PM72 °FLight rain. More clouds than sun.5 mph83%30.01 "Hg3 mi
1:00 PM70 °FLight rain. More clouds than sun.No wind88%29.98 "Hg2 mi
12:30 PM68 °FThunderstorms. More clouds than sun.No wind94%29.98 "Hg2 mi
12:00 PM66 °FThunderstorms. More clouds than sun.5 mph100%29.98 "Hg2 mi
11:30 AM66 °FThunderstorms. More clouds than sun.9 mph100%29.98 "Hg2 mi
11:00 AM72 °FStrong thunderstorms. More clouds than sun.12 mph94%29.98 "Hg1 mi
10:30 AM72 °FThunderstorms. More clouds than sun.5 mph94%29.98 "Hg2 mi
10:00 AM72 °FThunderstorms. More clouds than sun.No wind94%29.95 "Hg2 mi
9:30 AM72 °FThunderstorms. More clouds than sun.5 mph94%29.95 "Hg2 mi
9:00 AM72 °FThunderstorms. More clouds than sun.5 mph100%29.92 "Hg1 mi
8:00 AM72 °FFog.No wind100%29.92 "Hg1 mi
7:30 AM72 °FFog.No wind100%29.92 "Hg1 mi
7:00 AM72 °FFog.5 mph100%29.89 "Hg1 mi
6:30 AM72 °FFog.5 mph100%29.89 "Hg1 mi
8:00 PM
Mon, Aug 31
77 °FBroken clouds.5 mph83%29.98 "Hg4 mi
Weather by CustomWeather, © 2015

See weather overviewHow to use our weather pages